Stündliche Wetter Otmichi

Heute, 10 April, Samstag

Zeit Temperatur Niederschläge Wind Luftdruck Luftfeuchtigkeit
00:00 -1°C° 0 mm 4 m/S 753 mmHg 73%
01:00 -1°C° 0 mm 4 m/S 753 mmHg 73%
02:00 -1°C° 0 mm 4 m/S 753 mmHg 73%
03:00 -1°C° 0 mm 4 m/S 753 mmHg 75%
04:00 -1°C° 0 mm 4 m/S 753 mmHg 76%
05:00 -1°C° 0 mm 4 m/S 753 mmHg 78%
06:00 0°C° 0 mm 5 m/S 753 mmHg 74%
07:00 +2°C° 0 mm 5 m/S 753 mmHg 70%
08:00 +3°C° 0 mm 5 m/S 754 mmHg 66%
09:00 +4°C° 0 mm 6 m/S 753 mmHg 61%
10:00 +7°C° 0 mm 6 m/S 753 mmHg 56%
11:00 +8°C° 0 mm 6 m/S 753 mmHg 51%
12:00 +9°C° 0 mm 6 m/S 753 mmHg 48%
13:00 +9°C° 0 mm 6 m/S 753 mmHg 46%
14:00 +10°C° 0 mm 6 m/S 753 mmHg 43%
15:00 +9°C° 0 mm 6 m/S 752 mmHg 45%
16:00 +9°C° 0 mm 6 m/S 752 mmHg 46%
17:00 +8°C° 0 mm 6 m/S 752 mmHg 48%
18:00 +7°C° 0 mm 5 m/S 752 mmHg 52%
19:00 +7°C° 0 mm 5 m/S 752 mmHg 55%
20:00 +6°C° 0 mm 5 m/S 753 mmHg 59%
21:00 +5°C° 0 mm 5 m/S 753 mmHg 61%
22:00 +5°C° 0 mm 5 m/S 753 mmHg 63%
23:00 +3°C° 0 mm 5 m/S 753 mmHg 66%

Morgen, 11 April, Sonntag

Zeit Temperatur Niederschläge Wind Luftdruck Luftfeuchtigkeit
00:00 +4°C° 0 mm 4 m/S 753 mmHg 68%
01:00 +3°C° 0 mm 3 m/S 754 mmHg 71%
02:00 +3°C° 0 mm 3 m/S 754 mmHg 74%
03:00 +3°C° 0 mm 2 m/S 755 mmHg 77%
04:00 +3°C° 0 mm 2 m/S 755 mmHg 80%
05:00 +4°C° 0 mm 1 m/S 755 mmHg 84%
06:00 +5°C° 0 mm 1 m/S 756 mmHg 79%
07:00 +6°C° 0 mm 1 m/S 756 mmHg 74%
08:00 +7°C° 0 mm 1 m/S 757 mmHg 69%
09:00 +8°C° 0 mm 1 m/S 757 mmHg 66%
10:00 +8°C° 0 mm 2 m/S 757 mmHg 63%
11:00 +9°C° 0 mm 2 m/S 757 mmHg 61%
12:00 +10°C° 0 mm 2 m/S 758 mmHg 59%
13:00 +12°C° 0 mm 2 m/S 758 mmHg 57%
14:00 +13°C° 0 mm 2 m/S 758 mmHg 56%
15:00 +12°C° 0 mm 2 m/S 758 mmHg 60%
16:00 +12°C° 0 mm 2 m/S 758 mmHg 64%
17:00 +10°C° 0 mm 2 m/S 758 mmHg 68%
18:00 +9°C° 0 mm 2 m/S 759 mmHg 72%
19:00 +8°C° 0 mm 2 m/S 759 mmHg 76%
20:00 +8°C° 0 mm 2 m/S 759 mmHg 80%
21:00 +7°C° 0 mm 2 m/S 760 mmHg 81%
22:00 +7°C° 0 mm 2 m/S 760 mmHg 82%
23:00 +7°C° 0 mm 2 m/S 760 mmHg 84%

übermorgen, 12 April, Montag

Zeit Temperatur Niederschläge Wind Luftdruck Luftfeuchtigkeit
00:00 +6°C° 0 mm 2 m/S 760 mmHg 84%
01:00 +6°C° 0 mm 2 m/S 760 mmHg 84%
02:00 +6°C° 0 mm 2 m/S 760 mmHg 84%
03:00 +5°C° 0 mm 2 m/S 760 mmHg 84%
04:00 +5°C° 0 mm 2 m/S 760 mmHg 84%
05:00 +5°C° 0 mm 2 m/S 760 mmHg 84%
06:00 +6°C° 0 mm 2 m/S 760 mmHg 76%
07:00 +8°C° 0 mm 2 m/S 760 mmHg 69%
08:00 +10°C° 0 mm 2 m/S 761 mmHg 61%
09:00 +11°C° 0 mm 3 m/S 760 mmHg 56%
10:00 +13°C° 0 mm 3 m/S 760 mmHg 50%
11:00 +14°C° 0 mm 3 m/S 760 mmHg 44%
12:00 +15°C° 0 mm 4 m/S 759 mmHg 42%
13:00 +15°C° 0 mm 4 m/S 759 mmHg 39%
14:00 +15°C° 0 mm 4 m/S 758 mmHg 37%
15:00 +14°C° 0 mm 4 m/S 758 mmHg 42%
16:00 +13°C° 0 mm 4 m/S 757 mmHg 48%
17:00 +12°C° 0 mm 4 m/S 757 mmHg 53%
18:00 +11°C° 0 mm 3 m/S 757 mmHg 60%
19:00 +10°C° 0 mm 3 m/S 757 mmHg 67%
20:00 +9°C° 0 mm 3 m/S 757 mmHg 74%
21:00 +9°C° 0 mm 3 m/S 756 mmHg 78%
22:00 +8°C° 0 mm 2 m/S 756 mmHg 83%
23:00 +8°C° 0 mm 2 m/S 756 mmHg 87%

13 April, Dienstag

Zeit Temperatur Niederschläge Wind Luftdruck Luftfeuchtigkeit
00:00 +8°C° 0 mm 2 m/S 756 mmHg 90%
01:00 +8°C° 0 mm 2 m/S 755 mmHg 93%
02:00 +8°C° 0 mm 1 m/S 755 mmHg 95%
03:00 +8°C° 0 mm 1 m/S 755 mmHg 96%
04:00 +8°C° 0 mm 1 m/S 754 mmHg 96%
05:00 +8°C° 0 mm 1 m/S 754 mmHg 96%
06:00 +9°C° 0 mm 1 m/S 754 mmHg 91%
07:00 +10°C° 0 mm 1 m/S 754 mmHg 86%
08:00 +11°C° 0 mm 1 m/S 754 mmHg 82%
09:00 +13°C° 0 mm 2 m/S 754 mmHg 78%
10:00 +14°C° 0 mm 2 m/S 753 mmHg 73%
11:00 +14°C° 0 mm 3 m/S 753 mmHg 69%
12:00 +14°C° 0 mm 2 m/S 753 mmHg 71%
13:00 +14°C° 0 mm 2 m/S 753 mmHg 72%
14:00 +14°C° 0 mm 2 m/S 753 mmHg 74%
15:00 +14°C° 0 mm 2 m/S 753 mmHg 75%
16:00 +14°C° 0 mm 2 m/S 753 mmHg 77%
17:00 +14°C° 0 mm 2 m/S 752 mmHg 79%
18:00 +13°C° 0 mm 2 m/S 752 mmHg 81%
19:00 +13°C° 0 mm 2 m/S 752 mmHg 82%
20:00 +12°C° 0 mm 2 m/S 752 mmHg 84%
21:00 +12°C° 0.3 mm 2 m/S 752 mmHg 87%
22:00 +12°C° 0.3 mm 2 m/S 752 mmHg 91%
23:00 +10°C° 0.3 mm 2 m/S 752 mmHg 95%

14 April, Mittwoch

Zeit Temperatur Niederschläge Wind Luftdruck Luftfeuchtigkeit
00:00 +10°C° 0.3 mm 2 m/S 752 mmHg 95%
01:00 +10°C° 0.3 mm 2 m/S 751 mmHg 95%
02:00 +10°C° 0.3 mm 3 m/S 751 mmHg 96%
03:00 +10°C° 0 mm 2 m/S 751 mmHg 96%
04:00 +10°C° 0 mm 2 m/S 751 mmHg 95%
05:00 +10°C° 0 mm 2 m/S 751 mmHg 95%
06:00 +10°C° 0.1 mm 2 m/S 751 mmHg 93%
07:00 +12°C° 0.1 mm 2 m/S 751 mmHg 90%
08:00 +12°C° 0.1 mm 2 m/S 751 mmHg 88%
09:00 +13°C° 0 mm 2 m/S 751 mmHg 82%
10:00 +15°C° 0 mm 2 m/S 750 mmHg 76%
11:00 +16°C° 0 mm 2 m/S 750 mmHg 69%
12:00 +16°C° 0.1 mm 2 m/S 750 mmHg 70%
13:00 +16°C° 0.1 mm 2 m/S 750 mmHg 70%
14:00 +16°C° 0.1 mm 2 m/S 750 mmHg 70%
15:00 +15°C° 0.1 mm 2 m/S 749 mmHg 73%
16:00 +15°C° 0.1 mm 2 m/S 749 mmHg 75%
17:00 +14°C° 0.1 mm 2 m/S 749 mmHg 78%
18:00 +14°C° 0 mm 2 m/S 749 mmHg 82%
19:00 +13°C° 0 mm 2 m/S 749 mmHg 85%
20:00 +12°C° 0 mm 2 m/S 749 mmHg 89%
21:00 +12°C° 0 mm 1 m/S 749 mmHg 90%
22:00 +11°C° 0 mm 1 m/S 749 mmHg 91%
23:00 +11°C° 0 mm 1 m/S 749 mmHg 92%

15 April, Donnerstag

Zeit Temperatur Niederschläge Wind Luftdruck Luftfeuchtigkeit
00:00 +10°C° 0 mm 1 m/S 749 mmHg 92%
01:00 +10°C° 0 mm 1 m/S 749 mmHg 92%
02:00 +9°C° 0 mm 1 m/S 749 mmHg 92%
03:00 +9°C° 0 mm 1 m/S 749 mmHg 92%
04:00 +8°C° 0 mm 0 m/S 749 mmHg 91%
05:00 +8°C° 0 mm 0 m/S 749 mmHg 90%
06:00 +9°C° 0 mm 0 m/S 749 mmHg 86%
07:00 +10°C° 0 mm 0 m/S 749 mmHg 82%
08:00 +11°C° 0 mm 0 m/S 750 mmHg 78%
09:00 +13°C° 0 mm 1 m/S 749 mmHg 73%
10:00 +14°C° 0 mm 1 m/S 749 mmHg 69%
11:00 +15°C° 0 mm 1 m/S 749 mmHg 64%
12:00 +15°C° 0.1 mm 2 m/S 749 mmHg 66%
13:00 +13°C° 0.1 mm 3 m/S 749 mmHg 67%
14:00 +13°C° 0.1 mm 4 m/S 749 mmHg 68%
15:00 +11°C° 0.2 mm 4 m/S 749 mmHg 73%
16:00 +8°C° 0.2 mm 5 m/S 749 mmHg 78%
17:00 +7°C° 0.2 mm 5 m/S 750 mmHg 83%
18:00 +5°C° 0 mm 5 m/S 750 mmHg 85%
19:00 +3°C° 0 mm 5 m/S 750 mmHg 87%
20:00 +2°C° 0 mm 5 m/S 750 mmHg 89%
21:00 +2°C° 0 mm 5 m/S 750 mmHg 85%
22:00 +2°C° 0 mm 5 m/S 750 mmHg 81%
23:00 +2°C° 0 mm 5 m/S 750 mmHg 76%
Mehr zeigen

Wir brauchen deine Erlaubnis

Meteoprog und unser Service Anbieter werden persönliche Daten aufbewahren, so wie Cookies, Geräte Bezeichnung oder ähnliche Technologien von deinem Gerät und Prozess, so wie Persönliche Daten Inhalte und Werbungen, genauso wie social Media und den Verkehr zu analysieren.

  • Aufbewahrung und/oder Zugang zu deiner Geräte Informationen.

    Cookies, Geräte Bezeichnung oder andere Informationen, können aufbewahrt oder Zugang zu deinem Gerät erhalten, für den Grund, der oben angegeben wird.

  • Personalisierte Werbung und Inhalte, Messungen, Einblick in das Publikum und Produkt Entwicklung.

    Werbungen und Inhalte können personalisiert werden, basierend auf ein Profil. Mehr Daten können besser personalisierte Werbungen und Inhalte hinzufügen. Werbung und Inhalte können gezeigt und gemessen werden. Einblicke über das Publikum, welche die Werbung gesehen haben und den Inhalt, können abgeleitet werden. So wie Daten können genutzt werden, um es zu verbessern oder die Benutzer Erfahrung zu verbessern das System und die Software.

Wenn du “Ich stimme zu” klickst, erlaubst du uns, die Cookies zu benutzen die Geräte Bezeichnung, den Web oder ähnliche Technologien zu benutzen. Deine Settings, können in deinem Gerät bei deinem Browser geändert werden.

Für den bestimmten Zweck, berechtigten Interessen beruhen darauf, mehr als auf den Inhalt. Du kannst mehr darüber in unseren Privaten und Cookie Politik lesen.